Torna al catalogo

STARLINK-33753

AttivoComunicazioniVLEO
NORAD 63443·PAYLOAD·🇺🇸 United States

Lanciato Apr 4, 2025 da Vandenberg Space Force Base

Loading…

Prossimi Passaggi (prossime 24 ore)

TLE

AggiornatoSource: CelesTrak SupGP

Epoca: Sep 15, 2026, 03:00 UTC

1 63443C 25069L   26258.12548611  .00060190  00000+0  17785-2 0  2586
2 63443  53.1589 334.7709 0001319  84.0152  68.4869 15.34357473    14

Traccia STARLINK-33753 in tempo reale con AllMySat

Download on the App Store